Powrót do katalogu

STARLINK-11307

AktywnyŁącznośćVLEO
NORAD 61210·PAYLOAD·🇺🇸 United States

Wystrzelony Sep 20, 2024 z Vandenberg Space Force Base

Loading…

Następne Przeloty (najbliższe 24 godziny)

TLE

ŚwieżeSource: CelesTrak SupGP

Epoka: Sep 14, 2026, 22:50 UTC

1 61210C 24171L   26257.95187500 -.00039868  00000+0 -32839-3 0  2572
2 61210  53.1567 323.6223 0001101  82.9347 132.9293 15.69730342    16

Śledź STARLINK-11307 w czasie rzeczywistym z AllMySat

Download on the App Store